DW9442 Weather Reports


Display with metric or nautical units.
time (UTC)temp
F
wind
direction
speed
MPH
gust
MPH
rain 1hr
in
rain 24hr
in
rain mn
in
humidity
%
barometer
mb
20260901021519 60 229 1.0 2.0 0.00 1.64 1.64 92 1019.3
20260901020053 60 134 0.0 4.0 0.00 1.64 1.64 93 1019.2
20260901014513 60 46 1.0 3.0 0.00 1.64 1.64 94 1019.2
20260901013045 60 54 0.0 1.0 0.01 1.64 1.64 93 1019.2
20260901011516 61 323 0.0 1.0 0.02 1.64 1.64 93 1019.2
20260901010047 61 276 0.0 3.0 0.02 1.64 1.64 92 1019.1
20260901004519 61 268 0.0 3.0 0.07 1.64 1.64 92 1019.2
20260901003041 62 84 1.0 4.0 0.12 1.63 1.63 91 1019.2
20260901001515 62 347 2.0 4.0 0.24 1.62 1.62 92 1018.9
20260901000044 62 76 1.0 11.0 0.53 1.61 1.61 91 1018.8
20260831234513 62 51 5.0 9.0 1.00 1.57 1.57 92 1018.6
20260831233047 62 58 7.0 19.0 1.43 1.51 1.51 92 1018.6
20260831231515 61 71 5.0 10.0 1.37 1.37 1.37 92 1018.4
20260831230047 61 40 7.0 17.0 1.03 1.03 1.03 91 1018.3
20260831224509 65 56 10.0 24.0 0.55 0.55 0.55 86 1017.6
20260831223057 68 20 15.0 24.0 0.06 0.06 0.06 79 1017.2
20260831221521 70 61 2.0 9.0 0.00 0.00 0.00 68 1017.0
20260831220152 71 53 1.0 10.0 0.00 0.00 0.00 67 1016.8
20260831214630 71 62 2.0 3.0 0.00 0.00 0.00 73 1016.6
20260831213101 71 67 1.0 5.0 0.00 0.00 0.00 76 1016.3
20260831211527 71 229 0.0 1.0 0.00 0.00 0.00 77 1016.0
20260831210012 72 227 0.0 1.0 0.00 0.00 0.00 76 1016.1
20260831204521 73 20 0.0 1.0 0.00 0.00 0.00 74 1015.9
20260831203100 74 20 0.0 2.0 0.00 0.00 0.00 71 1015.7
20260831201523 73 21 0.0 1.0 0.00 0.00 0.00 72 1015.4
20260831200056 74 22 0.0 1.0 0.00 0.00 0.00 70 1015.4
20260831194528 74 22 0.0 1.0 0.00 0.00 0.00 70 1015.5
20260831193112 75 27 1.0 3.0 0.00 0.00 0.00 70 1015.2
20260831191503 76 2 0.0 1.0 0.00 0.00 0.00 68 1015.0
20260831190043 77 309 0.0 1.0 0.00 0.00 0.00 68 1014.9
20260831184505 77 266 0.0 3.0 0.00 0.00 0.00 67 1014.7
20260831183103 78 283 2.0 4.0 0.00 0.00 0.00 64 1014.5
20260831181542 78 248 2.0 4.0 0.00 0.00 0.00 64 1014.2
20260831180105 79 192 2.0 5.0 0.00 0.00 0.00 61 1014.0
20260831174529 79 224 0.0 3.0 0.00 0.00 0.00 61 1013.8
20260831173104 79 295 0.0 3.0 0.00 0.00 0.00 60 1014.0
20260831171531 80 287 0.0 1.0 0.00 0.00 0.00 58 1014.1
20260831170056 81 227 0.0 3.0 0.00 0.00 0.00 55 1014.2
20260831164525 82 238 2.0 6.0 0.00 0.00 0.00 54 1014.2
20260831163100 83 199 2.0 6.0 0.00 0.00 0.00 52 1014.3
20260831161544 84 216 1.0 6.0 0.00 0.00 0.00 49 1014.5
20260831160108 85 198 3.0 6.0 0.00 0.00 0.00 47 1014.4
20260831154529 85 207 4.0 11.0 0.00 0.00 0.00 46 1014.5
20260831153101 86 202 3.0 9.0 0.00 0.00 0.00 47 1014.4
20260831151531 86 217 2.0 8.0 0.00 0.00 0.00 46 1014.5
20260831150000 86 174 4.0 8.0 0.00 0.00 0.00 45 1014.5
20260831144536 86 203 3.0 6.0 0.00 0.00 0.00 45 1014.6
20260831143009 86 188 2.0 10.0 0.00 0.00 0.00 45 1014.6
20260831141556 86 198 2.0 7.0 0.00 0.00 0.00 43 1014.5
20260831140028 86 143 3.0 6.0 0.00 0.00 0.00 43 1014.7
20260831134501 86 210 3.0 9.0 0.00 0.00 0.00 43 1014.6
20260831133034 86 174 3.0 7.0 0.00 0.00 0.00 43 1014.8
20260831131513 86 160 4.0 7.0 0.00 0.00 0.00 44 1014.9
20260831130056 85 256 2.0 8.0 0.00 0.00 0.00 46 1015.0
20260831124538 86 177 0.0 2.0 0.00 0.00 0.00 45 1015.0
20260831123014 85 207 1.0 6.0 0.00 0.00 0.00 42 1015.2
20260831121548 85 223 2.0 7.0 0.00 0.00 0.00 43 1015.1
20260831120028 85 252 3.0 8.0 0.00 0.00 0.00 43 1015.3
20260831114507 84 260 1.0 5.0 0.00 0.00 0.00 47 1015.5
20260831113047 83 298 3.0 5.0 0.00 0.00 0.00 47 1015.7
20260831111541 82 269 1.0 4.0 0.00 0.00 0.00 49 1015.7
20260831110013 82 293 1.0 5.0 0.00 0.00 0.00 52 1015.8
20260831104558 82 287 0.0 3.0 0.00 0.00 0.00 52 1016.0
20260831103042 80 84 1.0 3.0 0.00 0.00 0.00 54 1016.1
20260831101523 80 18 1.0 4.0 0.00 0.00 0.00 56 1016.2
20260831100004 79 214 0.0 2.0 0.00 0.00 0.00 57 1016.4
20260831094551 78 176 1.0 3.0 0.00 0.00 0.00 59 1016.6
20260831093049 77 200 1.0 5.0 0.00 0.00 0.00 62 1016.8
20260831091524 76 201 1.0 4.0 0.00 0.00 0.00 64 1016.8
20260831090008 75 220 2.0 5.0 0.00 0.00 0.00 65 1016.9
20260831084552 74 166 2.0 5.0 0.00 0.00 0.00 66 1017.0
20260831083043 74 247 1.0 5.0 0.00 0.00 0.00 68 1017.0
20260831081524 73 56 0.0 2.0 0.00 0.00 0.00 70 1016.8
20260831080012 72 229 0.0 3.0 0.00 0.00 0.00 70 1016.9
20260831074559 71 273 0.0 3.0 0.00 0.00 0.00 71 1016.9
20260831073050 71 85 1.0 2.0 0.00 0.00 0.00 72 1017.0
20260831071545 70 195 1.0 3.0 0.00 0.00 0.00 73 1017.1
20260831070022 70 250 0.0 2.0 0.00 0.00 0.00 73 1017.0
20260831064512 69 116 0.0 0.0 0.00 0.00 0.00 74 1017.0
20260831063002 67 119 0.0 1.0 0.00 0.00 0.00 78 1017.1
20260831061547 66 115 0.0 2.0 0.00 0.00 0.00 81 1017.1
20260831060038 67 79 0.0 1.0 0.00 0.00 0.00 80 1017.1
20260831054529 65 212 0.0 1.0 0.00 0.00 0.00 83 1017.1
20260831053006 64 214 0.0 1.0 0.00 0.00 0.00 84 1016.9
20260831051555 62 322 0.0 1.0 0.00 0.00 0.00 86 1016.8
20260831050036 61 338 0.0 1.0 0.00 0.00 0.00 88 1016.6
20260831044510 61 347 0.0 1.0 0.00 0.00 0.00 89 1016.5
20260831043051 61 347 1.0 2.0 0.00 0.00 0.00 89 1016.5
20260831041537 61 335 0.0 1.0 0.00 0.00 0.00 89 1016.6
20260831040020 61 329 0.0 1.0 0.00 0.00 0.00 88 1016.6
20260831034555 62 329 0.0 2.0 0.00 0.00 0.00 86 1016.7
20260831033054 62 339 0.0 1.0 0.00 0.00 0.00 86 1016.7
20260831031524 63 340 0.0 1.0 0.00 0.00 0.00 85 1016.9
20260831030100 63 339 1.0 2.0 0.00 0.00 0.00 87 1016.7
20260831024538 62 340 0.0 1.0 0.00 0.00 0.00 87 1016.8
20260831023016 62 340 0.0 1.0 0.00 0.00 0.00 87 1016.8